Retour au catalogue

OPS 6630 DEB

ActifPO
NORAD 9323·DEBRIS·🇺🇸 United States

Lancé Nov 10, 1973 depuis Vandenberg Space Force Base

Loading…

Prochains Passages (prochaines 24 heures)

TLE

FraisSource: Space-Track

Époque: Sep 12, 2026, 13:52 UTC

1 09323U 73088F   26255.57806183  .00000024  00000-0  25202-3 0  9991
2 09323  97.0352 129.7161 0024678  57.7137  16.5279 12.59122387327528

Suivez OPS 6630 DEB en temps réel avec AllMySat

Download on the App Store